STARLINK-32432, 61257

Orbit data source: Space-Track

STARLINK-32432, 61257 is a payload satellite owned by SpaceX/Seattle (US) in LEO that was launched on Wed, 25 Sep 2024 UTC via an FALCON 9 launch vehicle from the Air Force Western Test Range (AFWTR). Payload-class satellites include a variety of spacecraft equipped with specific instruments for various scientific and technological missions. These include communications satellites like Starlink; space stations such as the ISS; scientific satellites like the Hubble; Earth observation satellites from companies like Planet Labs, Umbra, and HawkEye 360; GPS; miniature CubeSats for education and research; and military/defense satellites.

Loading next visibility...
Identifier
61257, 2024-175Q
Orbit
LEO
Country
Flag of USUS
Related business
Manufacturer
SpaceX/Seattle
Mission
Operational Commercial Communications
Bus & Motor
STARLINK V2M, Unknown motor
Mass
730 kg wet, ~700 kg dry
Launch date (UTC)
2024-09-25 (1 year ago)
Launch vehicle
FALCON 9
Launch site
Air Force Western Test Range (AFWTR)
Object type
Payload
Rocket body
Debris
Shape & HBR
Box + 2 Pan, 14.5 m
Radar Cross Section
33.884 m², Large (>1 m²)

Expand to show TLE details & history
Last TLE update: 16 hours ago

TLE from 16 hours ago
0 STARLINK-32432
1 61257U 24175Q   25261.06630378  .00000891  00000-0  42201-4 0  9990
2 61257  53.1599 275.8960 0001234  81.8208 278.2933 15.30198858 55023
Epoch: 2025-09-18T01:35Z
TLE epoch observation values (Epoch: 2025-09-18T01:35:28.646Z)
Latitude
-0°
Longitude
-105.2066°
Altitude
475.996 km
Speed
7.629 km/s
True Right ascension
18h 23m 35s
True Declination
0° 00' 00"
Sunlit
Object was in daylight at epoch
Visualization orbit readout
Latitude
Unknown
Longitude
Unknown
Altitude
Unknown
Speed
Unknown
Apparent Right ascension
Unknown
Apparent Declination
Unknown
Sunlit
N/A
Visualization observer readout
Local Sidereal Time
10:29:09
Azimuth
Unknown
Elevation
Unknown
Doppler factor
Unknown
Orbital elements
Apogee altitude
476.321 km
Perigee altitude
474.629 km
Semi-major axis
6,853.612 km
Eccentricity
0.00012
Inclination
53.1599°
RAAN
275.896°
Arg. of periapsis
81.8208°
True anomaly
278.27931°
Mean anomaly
278.2933°
Eccentric anomaly
278.2863°
Mean motion
3.82529 °/min
Orbital period
94.11 mins
BSTAR
0.000042201
Loading maneuver chart data...
Computing Atmospheric mass density...
Loading historical data...
Loading historical data...
Loading historical data...
Loading historical data...
Loading historical data...
Loading historical data...
Loading historical data...

Documentation

Showing up to 5 results
|